Weather History for KAGS - August, 2013

Change the Weather History Date:

Wednesday, August 21, 2013

  Actual Average Record
Temperature  
Mean Temperature 81 °F 80 °F  
Max Temperature 91 °F 91 °F 108 °F (1983)
Min Temperature 71 °F 69 °F 56 °F (1998)
Degree Days  
Heating Degree Days 0 0  
Month to date heating degree days 0 0  
Since 1 June heating degree days 0 0  
Since 1 July heating degree days 0 0  
Cooling Degree Days 16 15  
Month to date cooling degree days 295 337  
Year to date cooling degree days 1353 1543  
Since 1 June cooling degree days 1144 1260  
Growing Degree Days 31 (Base 50)    
Moisture  
Dew Point 72 °F    
Average Humidity 75    
Maximum Humidity 100    
Minimum Humidity 49    
Precipitation  
Precipitation 0.10 in 0.14 in 1.48 in (2012)
Month to date precipitation 5.67 3.02  
Year to date precipitation 45.15 29.57  
Sea Level Pressure  
Sea Level Pressure 30.17 in    
Wind  
Wind Speed 2 mph (NE)    
Max Wind Speed 12 mph    
Max Gust Speed 12 mph    
Visibility 8 miles    
Events Rain , Thunderstorm    
T = Trace of Precipitation, MM = Missing Value Source: NWS Daily Summary

Daily Weather History Graph

Daily Weather History Graph

Search for Another Location

Airport or City:

Trip Planner

Search our weather history database for the weather conditions in past years. The results will help you decide how hot, cold, wet, or windy it might be!

Date:

Astronomy

Aug. 21, 2013 Rise Set
Actual Time 6:54 AM EDT 8:06 PM EDT
Civil Twilight 6:28 AM EDT 8:32 PM EDT
Nautical Twilight 5:58 AM EDT 9:03 PM EDT
Astronomical Twilight 5:26 AM EDT 9:34 PM EDT
Moon 8:21 PM EDT (8/21) 7:28 AM EDT (8/21)
Length of Visible Light 14h 03m
Length of Day
13h 11m
Full, 100% of the Moon is Illuminated
Aug 21
Full
Aug 28
Last Quarter
Sep 5
New
Sep 12
First Quarter
Sep 19
Full

Hourly Weather History & Observations

Time (EDT) Temp. Heat Index Dew Point Humidity Pressure Visibility Wind Dir Wind Speed Gust Speed Precip Events Conditions
12:53 AM 73.0 °F - 72.0 °F 96% 30.17 in 10.0 mi Calm Calm - 0.00 in   Mostly Cloudy
1:23 AM 73.4 °F - 71.6 °F 94% 30.17 in 10.0 mi Calm Calm - N/A   Mostly Cloudy
1:53 AM 73.9 °F - 73.0 °F 97% 30.16 in 10.0 mi NNW 3.5 mph - N/A   Overcast
2:09 AM 73.4 °F - 71.6 °F 94% 30.17 in 10.0 mi Calm Calm - N/A   Scattered Clouds
2:53 AM 73.0 °F - 72.0 °F 96% 30.15 in 4.0 mi Calm Calm - N/A   Mostly Cloudy
3:04 AM 73.4 °F - 71.6 °F 94% 30.15 in 1.8 mi Calm Calm - N/A   Mostly Cloudy
3:13 AM 73.4 °F - 71.6 °F 94% 30.15 in 3.0 mi Calm Calm - N/A   Mostly Cloudy
3:26 AM 71.6 °F - 71.6 °F 100% 30.14 in 3.0 mi Calm Calm - N/A   Mostly Cloudy
3:53 AM 72.0 °F - 71.1 °F 97% 30.14 in 9.0 mi Calm Calm - N/A   Partly Cloudy
4:36 AM 71.6 °F - 71.6 °F 100% 30.14 in 10.0 mi Calm Calm - N/A   Mostly Cloudy
4:53 AM 71.1 °F - 71.1 °F 100% 30.13 in 10.0 mi Calm Calm - N/A   Scattered Clouds
5:01 AM 71.6 °F - 69.8 °F 94% 30.13 in 1.5 mi Calm Calm - N/A   Partly Cloudy
5:13 AM 71.6 °F - 71.6 °F 100% 30.14 in 2.0 mi Calm Calm - N/A   Scattered Clouds
5:21 AM 71.6 °F - 71.6 °F 100% 30.14 in 10.0 mi Calm Calm - N/A   Scattered Clouds
5:27 AM 71.6 °F - 69.8 °F 94% 30.14 in 10.0 mi West 3.5 mph - N/A   Mostly Cloudy
5:53 AM 71.1 °F - 70.0 °F 96% 30.14 in 9.0 mi Calm Calm - N/A   Mostly Cloudy
6:37 AM 71.6 °F - 71.6 °F 100% 30.18 in 10.0 mi WNW 3.5 mph - 0.01 in   Overcast
6:53 AM 73.0 °F - 72.0 °F 96% 30.18 in 10.0 mi Calm Calm - 0.01 in   Overcast
7:07 AM 73.4 °F - 71.6 °F 94% 30.19 in 1.5 mi Calm Calm - 0.00 in Rain Rain
7:23 AM 73.4 °F - 71.6 °F 94% 30.19 in 9.0 mi Calm Calm - 0.06 in   Overcast
7:53 AM 73.0 °F - 73.0 °F 100% 30.19 in 9.0 mi Calm Calm - 0.06 in   Overcast
8:46 AM 73.4 °F - 73.4 °F 100% 30.21 in 3.0 mi East 3.5 mph - N/A   Overcast
8:53 AM 75.0 °F - 73.0 °F 94% 30.20 in 3.0 mi Calm Calm - N/A   Overcast
9:28 AM 75.2 °F - 73.4 °F 94% 30.22 in 2.0 mi East 3.5 mph - N/A   Overcast
9:46 AM 75.2 °F - 73.4 °F 94% 30.22 in 3.0 mi ENE 3.5 mph - N/A   Overcast
9:53 AM 75.0 °F - 73.9 °F 96% 30.22 in 4.0 mi East 3.5 mph - N/A   Overcast
10:36 AM 78.8 °F - 73.4 °F 83% 30.23 in 4.0 mi Calm Calm - N/A   Overcast
10:53 AM 78.1 °F - 73.9 °F 87% 30.22 in 4.0 mi Calm Calm - N/A   Overcast
11:34 AM 80.6 °F 86.2 °F 75.2 °F 84% 30.23 in 9.0 mi Calm Calm - N/A   Overcast
11:53 AM 81.0 °F 86.7 °F 75.0 °F 82% 30.22 in 9.0 mi Calm Calm - N/A   Overcast
12:10 PM 82.4 °F 89.5 °F 75.2 °F 79% 30.22 in 10.0 mi Calm Calm - N/A   Scattered Clouds
12:53 PM 84.9 °F 92.1 °F 73.9 °F 69% 30.21 in 10.0 mi Variable 3.5 mph - N/A   Partly Cloudy
1:02 PM 86.0 °F 95.1 °F 75.2 °F 70% 30.21 in 10.0 mi Variable 3.5 mph - N/A   Mostly Cloudy
1:53 PM 87.1 °F 95.4 °F 73.9 °F 65% 30.18 in 10.0 mi SE 3.5 mph - N/A   Mostly Cloudy
2:25 PM 87.8 °F 95.6 °F 73.4 °F 62% 30.17 in 10.0 mi SSW 4.6 mph - N/A   Mostly Cloudy
2:53 PM 89.1 °F 96.0 °F 72.0 °F 57% 30.16 in 10.0 mi Variable 3.5 mph - N/A   Mostly Cloudy
3:53 PM 90.0 °F 97.9 °F 73.0 °F 57% 30.13 in 10.0 mi ESE 6.9 mph - N/A   Scattered Clouds
4:53 PM 90.0 °F 96.4 °F 71.1 °F 54% 30.12 in 10.0 mi Variable 4.6 mph - N/A   Scattered Clouds
5:53 PM 91.0 °F 96.6 °F 70.0 °F 50% 30.11 in 10.0 mi Calm Calm - N/A   Mostly Cloudy
6:53 PM 82.9 °F 88.0 °F 72.0 °F 69% 30.13 in 10.0 mi SSW 8.1 mph - N/A   Overcast
7:07 PM 78.8 °F - 73.4 °F 83% 30.12 in 2.0 mi NE 4.6 mph - 0.04 in Rain , Thunderstorm Heavy Rain
7:17 PM 80.6 °F 84.6 °F 71.6 °F 74% 30.13 in 10.0 mi North 8.1 mph - 0.04 in Rain , Thunderstorm Light Rain
7:40 PM 77.0 °F - 71.6 °F 83% 30.14 in 10.0 mi NNW 4.6 mph - 0.04 in Rain Light Rain
7:53 PM 77.0 °F - 72.0 °F 84% 30.13 in 10.0 mi Calm Calm - 0.04 in Rain Light Rain
8:53 PM 75.0 °F - 73.0 °F 94% 30.14 in 10.0 mi NNW 3.5 mph - 0.00 in   Clear
9:53 PM 73.9 °F - 73.0 °F 97% 30.15 in 9.0 mi Calm Calm - N/A   Clear
10:53 PM 73.9 °F - 73.0 °F 97% 30.17 in 10.0 mi Calm Calm - N/A   Clear
11:53 PM 73.0 °F - 72.0 °F 96% 30.16 in 9.0 mi Calm Calm - 0.01 in   Clear